Time,TemperatureF,DewpointF,PressureIn,WindDirection,WindDirectionDegrees,WindSpeedMPH,WindSpeedGustMPH,Humidity,HourlyPrecipIn,Conditions,Clouds,dailyrainin,SoftwareType,DateUTC
2014-12-20 00:04:00,52.5,52.5,0.00,SE,141,1.2,2.9,100,0.00,,,0.00,WUHU216CR1000,2014-12-20 08:04:00,
2014-12-20 00:09:00,52.5,52.5,0.00,SE,141,1.2,2.9,100,0.00,,,0.00,WUHU216CR1000,2014-12-20 08:09:00,
2014-12-20 00:14:00,52.5,52.5,0.00,SE,141,1.2,2.9,100,0.00,,,0.00,WUHU216CR1000,2014-12-20 08:14:00,
2014-12-20 00:19:00,52.5,52.5,0.00,SE,141,1.2,2.9,100,0.00,,,0.00,WUHU216CR1000,2014-12-20 08:19:00,
2014-12-20 00:24:00,52.5,52.5,0.00,SE,141,1.2,2.9,100,0.00,,,0.00,WUHU216CR1000,2014-12-20 08:24:00,
2014-12-20 00:29:00,52.5,52.5,0.00,SE,141,1.2,2.9,100,0.00,,,0.00,WUHU216CR1000,2014-12-20 08:29:00,
2014-12-20 00:34:00,52.5,52.5,0.00,SE,141,1.2,2.9,100,0.00,,,0.00,WUHU216CR1000,2014-12-20 08:34:00,
2014-12-20 00:39:00,52.5,52.5,0.00,SE,141,1.2,2.9,100,0.00,,,0.00,WUHU216CR1000,2014-12-20 08:39:00,
2014-12-20 00:44:00,52.5,52.5,0.00,SE,141,1.2,2.9,100,0.00,,,0.00,WUHU216CR1000,2014-12-20 08:44:00,
2014-12-20 00:49:00,52.5,52.5,0.00,SE,141,1.2,2.9,100,0.00,,,0.00,WUHU216CR1000,2014-12-20 08:49:00,
2014-12-20 00:54:00,52.5,52.5,0.00,SE,141,1.2,2.9,100,0.00,,,0.00,WUHU216CR1000,2014-12-20 08:54:00,
2014-12-20 00:59:00,52.5,52.5,0.00,SE,141,1.2,2.9,100,0.00,,,0.00,WUHU216CR1000,2014-12-20 08:59:00,
2014-12-20 01:04:00,52.1,52.1,0.00,SE,129,0.3,2.9,100,0.00,,,0.00,WUHU216CR1000,2014-12-20 09:04:00,
2014-12-20 01:09:00,52.1,52.1,0.00,SE,129,0.3,1.8,100,0.00,,,0.00,WUHU216CR1000,2014-12-20 09:09:00,
2014-12-20 01:14:00,52.1,52.1,0.00,SE,129,0.3,1.8,100,0.00,,,0.00,WUHU216CR1000,2014-12-20 09:14:00,
2014-12-20 01:19:00,52.1,52.1,0.00,SE,129,0.3,1.8,100,0.00,,,0.00,WUHU216CR1000,2014-12-20 09:19:00,
2014-12-20 01:24:00,52.1,52.1,0.00,SE,129,0.3,1.8,100,0.00,,,0.00,WUHU216CR1000,2014-12-20 09:24:00,
2014-12-20 01:29:00,52.1,52.1,0.00,SE,129,0.3,1.8,100,0.00,,,0.00,WUHU216CR1000,2014-12-20 09:29:00,
2014-12-20 01:34:00,52.1,52.1,0.00,SE,129,0.3,1.8,100,0.00,,,0.00,WUHU216CR1000,2014-12-20 09:34:00,
2014-12-20 01:39:00,52.1,52.1,0.00,SE,129,0.3,1.8,100,0.00,,,0.00,WUHU216CR1000,2014-12-20 09:39:00,
2014-12-20 01:44:00,52.1,52.1,0.00,SE,129,0.3,1.8,100,0.00,,,0.00,WUHU216CR1000,2014-12-20 09:44:00,
2014-12-20 01:49:00,52.1,52.1,0.00,SE,129,0.3,1.8,100,0.00,,,0.00,WUHU216CR1000,2014-12-20 09:49:00,
2014-12-20 01:54:00,52.1,52.1,0.00,SE,129,0.3,1.8,100,0.00,,,0.00,WUHU216CR1000,2014-12-20 09:54:00,
2014-12-20 01:59:00,52.1,52.1,0.00,SE,129,0.3,1.8,100,0.00,,,0.00,WUHU216CR1000,2014-12-20 09:59:00,
2014-12-20 02:04:00,52.0,52.0,0.00,SE,130,1.3,2.9,100,0.00,,,0.00,WUHU216CR1000,2014-12-20 10:04:00,
2014-12-20 02:09:00,52.0,52.0,0.00,SE,130,1.3,2.9,100,0.00,,,0.00,WUHU216CR1000,2014-12-20 10:09:00,
2014-12-20 02:14:00,52.0,52.0,0.00,SE,130,1.3,2.9,100,0.00,,,0.00,WUHU216CR1000,2014-12-20 10:14:00,
2014-12-20 02:19:00,52.0,52.0,0.00,SE,130,1.3,2.9,100,0.00,,,0.00,WUHU216CR1000,2014-12-20 10:19:00,
2014-12-20 02:24:00,52.0,52.0,0.00,SE,130,1.3,2.9,100,0.00,,,0.00,WUHU216CR1000,2014-12-20 10:24:00,
2014-12-20 02:29:00,52.0,52.0,0.00,SE,130,1.3,2.9,100,0.00,,,0.00,WUHU216CR1000,2014-12-20 10:29:00,
2014-12-20 02:34:00,52.0,52.0,0.00,SE,130,1.3,2.9,100,0.00,,,0.00,WUHU216CR1000,2014-12-20 10:34:00,
2014-12-20 02:39:00,52.0,52.0,0.00,SE,130,1.3,2.9,100,0.00,,,0.00,WUHU216CR1000,2014-12-20 10:39:00,
2014-12-20 02:44:00,52.0,52.0,0.00,SE,130,1.3,2.9,100,0.00,,,0.00,WUHU216CR1000,2014-12-20 10:44:00,
2014-12-20 02:49:00,52.0,52.0,0.00,SE,130,1.3,2.9,100,0.00,,,0.00,WUHU216CR1000,2014-12-20 10:49:00,
2014-12-20 02:54:00,52.0,52.0,0.00,SE,130,1.3,2.9,100,0.00,,,0.00,WUHU216CR1000,2014-12-20 10:54:00,
2014-12-20 02:59:00,52.0,52.0,0.00,SE,130,1.3,2.9,100,0.00,,,0.00,WUHU216CR1000,2014-12-20 10:59:00,
2014-12-20 03:04:00,52.0,52.0,0.00,SSE,148,1.6,3.3,100,0.00,,,0.00,WUHU216CR1000,2014-12-20 11:04:00,
2014-12-20 03:09:00,52.0,52.0,0.00,SSE,148,1.6,3.3,100,0.00,,,0.00,WUHU216CR1000,2014-12-20 11:09:00,
2014-12-20 03:14:00,52.0,52.0,0.00,SSE,148,1.6,3.3,100,0.00,,,0.00,WUHU216CR1000,2014-12-20 11:14:00,
2014-12-20 03:19:00,52.0,52.0,0.00,SSE,148,1.6,3.3,100,0.00,,,0.00,WUHU216CR1000,2014-12-20 11:19:00,
2014-12-20 03:24:00,52.0,52.0,0.00,SSE,148,1.6,3.3,100,0.00,,,0.00,WUHU216CR1000,2014-12-20 11:24:00,
2014-12-20 03:29:00,52.0,52.0,0.00,SSE,148,1.6,3.3,100,0.00,,,0.00,WUHU216CR1000,2014-12-20 11:29:00,
2014-12-20 03:34:00,52.0,52.0,0.00,SSE,148,1.6,3.3,100,0.00,,,0.00,WUHU216CR1000,2014-12-20 11:34:00,
2014-12-20 03:39:00,52.0,52.0,0.00,SSE,148,1.6,3.3,100,0.00,,,0.00,WUHU216CR1000,2014-12-20 11:39:00,
2014-12-20 03:44:00,52.0,52.0,0.00,SSE,148,1.6,3.3,100,0.00,,,0.00,WUHU216CR1000,2014-12-20 11:44:00,
2014-12-20 03:49:00,52.0,52.0,0.00,SSE,148,1.6,3.3,100,0.00,,,0.00,WUHU216CR1000,2014-12-20 11:49:00,
2014-12-20 03:54:00,52.0,52.0,0.00,SSE,148,1.6,3.3,100,0.00,,,0.00,WUHU216CR1000,2014-12-20 11:54:00,
2014-12-20 03:59:00,52.0,52.0,0.00,SSE,148,1.6,3.3,100,0.00,,,0.00,WUHU216CR1000,2014-12-20 11:59:00,
2014-12-20 04:04:00,52.0,52.0,0.00,SSE,163,0.3,3.3,100,0.00,,,0.00,WUHU216CR1000,2014-12-20 12:04:00,
2014-12-20 04:09:00,52.0,52.0,0.00,SSE,163,0.3,1.5,100,0.00,,,0.00,WUHU216CR1000,2014-12-20 12:09:00,
2014-12-20 04:14:00,52.0,52.0,0.00,SSE,163,0.3,1.5,100,0.00,,,0.00,WUHU216CR1000,2014-12-20 12:14:00,
2014-12-20 04:19:00,52.0,52.0,0.00,SSE,163,0.3,1.5,100,0.00,,,0.00,WUHU216CR1000,2014-12-20 12:19:00,
2014-12-20 04:24:00,52.0,52.0,0.00,SSE,163,0.3,1.5,100,0.00,,,0.00,WUHU216CR1000,2014-12-20 12:24:00,
2014-12-20 04:29:00,52.0,52.0,0.00,SSE,163,0.3,1.5,100,0.00,,,0.00,WUHU216CR1000,2014-12-20 12:29:00,
2014-12-20 04:34:00,52.0,52.0,0.00,SSE,163,0.3,1.5,100,0.00,,,0.00,WUHU216CR1000,2014-12-20 12:34:00,
2014-12-20 04:39:00,52.0,52.0,0.00,SSE,163,0.3,1.5,100,0.00,,,0.00,WUHU216CR1000,2014-12-20 12:39:00,
2014-12-20 04:44:00,52.0,52.0,0.00,SSE,163,0.3,1.5,100,0.00,,,0.00,WUHU216CR1000,2014-12-20 12:44:00,
2014-12-20 04:49:00,52.0,52.0,0.00,SSE,163,0.3,1.5,100,0.00,,,0.00,WUHU216CR1000,2014-12-20 12:49:00,
2014-12-20 04:54:00,52.0,52.0,0.00,SSE,163,0.3,1.5,100,0.00,,,0.00,WUHU216CR1000,2014-12-20 12:54:00,
2014-12-20 04:59:00,52.0,52.0,0.00,SSE,163,0.3,1.5,100,0.00,,,0.00,WUHU216CR1000,2014-12-20 12:59:00,
2014-12-20 05:04:00,52.1,52.2,0.00,ESE,114,0.2,1.5,100,0.00,,,0.00,WUHU216CR1000,2014-12-20 13:04:00,
2014-12-20 05:09:00,52.1,52.2,0.00,ESE,114,0.2,1.1,100,0.00,,,0.00,WUHU216CR1000,2014-12-20 13:09:00,
2014-12-20 05:14:00,52.1,52.2,0.00,ESE,114,0.2,1.1,100,0.00,,,0.00,WUHU216CR1000,2014-12-20 13:14:00,
2014-12-20 05:19:00,52.1,52.2,0.00,ESE,114,0.2,1.1,100,0.00,,,0.00,WUHU216CR1000,2014-12-20 13:19:00,
2014-12-20 05:24:00,52.1,52.2,0.00,ESE,114,0.2,1.1,100,0.00,,,0.00,WUHU216CR1000,2014-12-20 13:24:00,
2014-12-20 05:29:00,52.1,52.2,0.00,ESE,114,0.2,1.1,100,0.00,,,0.00,WUHU216CR1000,2014-12-20 13:29:00,
2014-12-20 05:34:00,52.1,52.2,0.00,ESE,114,0.2,1.1,100,0.00,,,0.00,WUHU216CR1000,2014-12-20 13:34:00,
2014-12-20 05:39:00,52.1,52.2,0.00,ESE,114,0.2,1.1,100,0.00,,,0.00,WUHU216CR1000,2014-12-20 13:39:00,
2014-12-20 05:44:00,52.1,52.2,0.00,ESE,114,0.2,1.1,100,0.00,,,0.00,WUHU216CR1000,2014-12-20 13:44:00,
2014-12-20 05:49:00,52.1,52.2,0.00,ESE,114,0.2,1.1,100,0.00,,,0.00,WUHU216CR1000,2014-12-20 13:49:00,
2014-12-20 05:54:00,52.1,52.2,0.00,ESE,114,0.2,1.1,100,0.00,,,0.00,WUHU216CR1000,2014-12-20 13:54:00,
2014-12-20 05:59:00,52.1,52.2,0.00,ESE,114,0.2,1.1,100,0.00,,,0.00,WUHU216CR1000,2014-12-20 13:59:00,
2014-12-20 06:04:00,52.0,52.0,0.00,SW,227,0.5,2.0,100,0.00,,,0.00,WUHU216CR1000,2014-12-20 14:04:00,
2014-12-20 06:09:00,52.0,52.0,0.00,SW,227,0.5,2.0,100,0.00,,,0.00,WUHU216CR1000,2014-12-20 14:09:00,
2014-12-20 06:14:00,52.0,52.0,0.00,SW,227,0.5,2.0,100,0.00,,,0.00,WUHU216CR1000,2014-12-20 14:14:00,
2014-12-20 06:19:00,52.0,52.0,0.00,SW,227,0.5,2.0,100,0.00,,,0.00,WUHU216CR1000,2014-12-20 14:19:00,
2014-12-20 06:24:00,52.0,52.0,0.00,SW,227,0.5,2.0,100,0.00,,,0.00,WUHU216CR1000,2014-12-20 14:24:00,
2014-12-20 06:29:00,52.0,52.0,0.00,SW,227,0.5,2.0,100,0.00,,,0.00,WUHU216CR1000,2014-12-20 14:29:00,
2014-12-20 06:34:00,52.0,52.0,0.00,SW,227,0.5,2.0,100,0.00,,,0.00,WUHU216CR1000,2014-12-20 14:34:00,
2014-12-20 06:39:00,52.0,52.0,0.00,SW,227,0.5,2.0,100,0.00,,,0.00,WUHU216CR1000,2014-12-20 14:39:00,
2014-12-20 06:44:00,52.0,52.0,0.00,SW,227,0.5,2.0,100,0.00,,,0.00,WUHU216CR1000,2014-12-20 14:44:00,
2014-12-20 06:49:00,52.0,52.0,0.00,SW,227,0.5,2.0,100,0.00,,,0.00,WUHU216CR1000,2014-12-20 14:49:00,
2014-12-20 06:54:00,52.0,52.0,0.00,SW,227,0.5,2.0,100,0.00,,,0.00,WUHU216CR1000,2014-12-20 14:54:00,
2014-12-20 06:59:00,52.0,52.0,0.00,SW,227,0.5,2.0,100,0.00,,,0.00,WUHU216CR1000,2014-12-20 14:59:00,
2014-12-20 07:04:00,52.0,52.0,0.00,ENE,57,0.1,2.0,100,0.00,,,0.00,WUHU216CR1000,2014-12-20 15:04:00,
2014-12-20 07:09:00,52.0,52.0,0.00,ENE,57,0.1,1.1,100,0.00,,,0.00,WUHU216CR1000,2014-12-20 15:09:00,
2014-12-20 07:14:00,52.0,52.0,0.00,ENE,57,0.1,1.1,100,0.00,,,0.00,WUHU216CR1000,2014-12-20 15:14:00,
2014-12-20 07:19:00,52.0,52.0,0.00,ENE,57,0.1,1.1,100,0.00,,,0.00,WUHU216CR1000,2014-12-20 15:19:00,
2014-12-20 07:24:00,52.0,52.0,0.00,ENE,57,0.1,1.1,100,0.00,,,0.00,WUHU216CR1000,2014-12-20 15:24:00,
2014-12-20 07:29:00,52.0,52.0,0.00,ENE,57,0.1,1.1,100,0.00,,,0.00,WUHU216CR1000,2014-12-20 15:29:00,
2014-12-20 07:34:00,52.0,52.0,0.00,ENE,57,0.1,1.1,100,0.00,,,0.00,WUHU216CR1000,2014-12-20 15:34:00,
2014-12-20 07:39:00,52.0,52.0,0.00,ENE,57,0.1,1.1,100,0.00,,,0.00,WUHU216CR1000,2014-12-20 15:39:00,
2014-12-20 07:44:00,52.0,52.0,0.00,ENE,57,0.1,1.1,100,0.00,,,0.00,WUHU216CR1000,2014-12-20 15:44:00,
2014-12-20 07:49:00,52.0,52.0,0.00,ENE,57,0.1,1.1,100,0.00,,,0.00,WUHU216CR1000,2014-12-20 15:49:00,
2014-12-20 07:54:00,52.0,52.0,0.00,ENE,57,0.1,1.1,100,0.00,,,0.00,WUHU216CR1000,2014-12-20 15:54:00,
2014-12-20 07:59:00,52.0,52.0,0.00,ENE,57,0.1,1.1,100,0.00,,,0.00,WUHU216CR1000,2014-12-20 15:59:00,
2014-12-20 08:04:00,52.2,52.2,0.00,SE,127,0.5,2.0,100,0.00,,,0.00,WUHU216CR1000,2014-12-20 16:04:00,
2014-12-20 08:09:00,52.2,52.2,0.00,SE,127,0.5,2.0,100,0.00,,,0.00,WUHU216CR1000,2014-12-20 16:09:00,
2014-12-20 08:14:00,52.2,52.2,0.00,SE,127,0.5,2.0,100,0.00,,,0.00,WUHU216CR1000,2014-12-20 16:14:00,
2014-12-20 08:19:00,52.2,52.2,0.00,SE,127,0.5,2.0,100,0.00,,,0.00,WUHU216CR1000,2014-12-20 16:19:00,
2014-12-20 08:24:00,52.2,52.2,0.00,SE,127,0.5,2.0,100,0.00,,,0.00,WUHU216CR1000,2014-12-20 16:24:00,
2014-12-20 08:29:00,52.2,52.2,0.00,SE,127,0.5,2.0,100,0.00,,,0.00,WUHU216CR1000,2014-12-20 16:29:00,
2014-12-20 08:34:00,52.2,52.2,0.00,SE,127,0.5,2.0,100,0.00,,,0.00,WUHU216CR1000,2014-12-20 16:34:00,
2014-12-20 08:39:00,52.2,52.2,0.00,SE,127,0.5,2.0,100,0.00,,,0.00,WUHU216CR1000,2014-12-20 16:39:00,
2014-12-20 08:44:00,52.2,52.2,0.00,SE,127,0.5,2.0,100,0.00,,,0.00,WUHU216CR1000,2014-12-20 16:44:00,
2014-12-20 08:49:00,52.2,52.2,0.00,SE,127,0.5,2.0,100,0.00,,,0.00,WUHU216CR1000,2014-12-20 16:49:00,
2014-12-20 08:54:00,52.2,52.2,0.00,SE,127,0.5,2.0,100,0.00,,,0.00,WUHU216CR1000,2014-12-20 16:54:00,
2014-12-20 08:59:00,52.2,52.2,0.00,SE,127,0.5,2.0,100,0.00,,,0.00,WUHU216CR1000,2014-12-20 16:59:00,
2014-12-20 09:04:00,52.8,52.8,0.00,SSE,148,2.7,5.0,100,0.00,,,0.00,WUHU216CR1000,2014-12-20 17:04:00,
2014-12-20 09:09:00,52.8,52.8,0.00,SSE,148,2.7,5.0,100,0.00,,,0.00,WUHU216CR1000,2014-12-20 17:09:00,
2014-12-20 09:15:00,52.8,52.8,0.00,SSE,148,2.7,5.0,100,0.00,,,0.00,WUHU216CR1000,2014-12-20 17:15:00,